TimeEET,TemperatureF,Dew PointF,Humidity,Sea Level PressureIn,VisibilityMPH,Wind Direction,Wind SpeedMPH,Gust SpeedMPH,PrecipitationIn,Events,Conditions,WindDirDegrees,DateUTC
12:20 AM,48.2,30.2,50,29.98,-9999.0,NNW,12.7,-,N/A,,Clear,330,2013-03-23 22:20:00
12:50 AM,46.4,32.0,57,29.98,-9999.0,North,8.1,-,N/A,,Clear,10,2013-03-23 22:50:00
1:20 AM,46.4,32.0,57,30.01,-9999.0,North,9.2,-,N/A,,Clear,360,2013-03-23 23:20:00
1:50 AM,44.6,32.0,61,30.01,-9999.0,North,9.2,-,N/A,,Clear,350,2013-03-23 23:50:00
2:00 AM,44,33,54,29.99,6,North,9.2,,,,,350,2013-03-24 00:00:00
2:20 AM,48.2,32.0,54,30.01,-9999.0,NNW,13.8,-,N/A,,Clear,340,2013-03-24 00:20:00
2:50 AM,48.2,30.2,50,30.01,-9999.0,NNW,15.0,-,N/A,,Clear,340,2013-03-24 00:50:00
3:20 AM,46.4,32.0,57,30.01,-9999.0,North,11.5,-,N/A,,Clear,350,2013-03-24 01:20:00
3:50 AM,48.2,30.2,50,29.98,-9999.0,NNW,10.4,-,N/A,,Clear,340,2013-03-24 01:50:00
4:20 AM,46.4,30.2,53,29.98,-9999.0,North,6.9,-,N/A,,Clear,360,2013-03-24 02:20:00
4:50 AM,44.6,30.2,57,29.98,-9999.0,North,3.5,-,N/A,,Clear,360,2013-03-24 02:50:00
5:20 AM,46.4,30.2,53,29.98,-9999.0,NNW,10.4,-,N/A,,Clear,330,2013-03-24 03:20:00
5:50 AM,48.2,30.2,50,29.98,-9999.0,NW,15.0,-,N/A,,Clear,320,2013-03-24 03:50:00
6:20 AM,50.0,30.2,47,30.01,-9999.0,NW,19.6,-,N/A,,Clear,320,2013-03-24 04:20:00
6:50 AM,51.8,28.4,41,30.01,-9999.0,NW,18.4,-,N/A,,Clear,320,2013-03-24 04:50:00
7:20 AM,51.8,28.4,41,30.01,-9999.0,NW,15.0,-,N/A,,Clear,310,2013-03-24 05:20:00
7:50 AM,53.6,32.0,44,30.04,-9999.0,NNW,13.8,-,N/A,,Clear,330,2013-03-24 05:50:00
8:00 AM,54,30,27,30.02,12,NNW,13.8,,,,,330,2013-03-24 06:00:00
8:20 AM,55.4,28.4,36,30.04,-9999.0,NNW,16.1,-,N/A,,Clear,340,2013-03-24 06:20:00
8:50 AM,57.2,28.4,33,30.04,-9999.0,NNW,16.1,-,N/A,,Clear,340,2013-03-24 06:50:00
9:20 AM,59.0,26.6,29,30.04,-9999.0,North,18.4,-,N/A,,Clear,350,2013-03-24 07:20:00
9:50 AM,60.8,28.4,29,30.04,-9999.0,North,15.0,-,N/A,,Clear,350,2013-03-24 07:50:00
10:20 AM,62.6,28.4,27,30.04,-9999.0,North,9.2,-,N/A,,Clear,360,2013-03-24 08:20:00
10:50 AM,62.6,32.0,32,30.06,-9999.0,North,5.8,-,N/A,,Clear,10,2013-03-24 08:50:00
11:20 AM,62.6,26.6,26,30.04,-9999.0,Variable,5.8,-,N/A,,Clear,0,2013-03-24 09:20:00
11:50 AM,62.6,32.0,32,30.06,-9999.0,SSW,9.2,-,N/A,,Clear,200,2013-03-24 09:50:00
12:20 PM,62.6,32.0,32,30.06,6.2,South,11.5,-,N/A,,Partly Cloudy,180,2013-03-24 10:20:00
12:50 PM,62.6,35.6,37,30.06,6.2,South,9.2,-,N/A,,Scattered Clouds,170,2013-03-24 10:50:00
1:20 PM,62.6,26.6,26,30.06,6.2,SSE,9.2,-,N/A,,Scattered Clouds,160,2013-03-24 11:20:00
1:50 PM,62.6,30.2,30,30.06,6.2,SSE,9.2,-,N/A,,Scattered Clouds,160,2013-03-24 11:50:00
2:00 PM,63,29,17,30.06,6,SSE,9.2,,,,Scattered Clouds,160,2013-03-24 12:00:00
2:20 PM,62.6,32.0,32,30.06,6.2,South,9.2,-,N/A,,Partly Cloudy,170,2013-03-24 12:20:00
2:50 PM,62.6,30.2,30,30.06,6.2,South,9.2,-,N/A,,Partly Cloudy,170,2013-03-24 12:50:00
3:20 PM,62.6,30.2,30,30.06,6.2,South,10.4,-,N/A,,Partly Cloudy,180,2013-03-24 13:20:00
3:50 PM,62.6,39.2,42,30.04,6.2,South,10.4,-,N/A,,Partly Cloudy,190,2013-03-24 13:50:00
4:20 PM,60.8,41.0,48,30.06,6.2,South,9.2,-,N/A,,Partly Cloudy,180,2013-03-24 14:20:00
4:50 PM,60.8,42.8,52,30.06,6.2,South,6.9,-,N/A,,Partly Cloudy,170,2013-03-24 14:50:00
5:20 PM,60.8,46.4,59,30.06,6.2,South,5.8,-,N/A,,Partly Cloudy,180,2013-03-24 15:20:00
5:50 PM,59.0,46.4,63,30.06,6.2,SE,3.5,-,N/A,,Partly Cloudy,140,2013-03-24 15:50:00
6:20 PM,57.2,46.4,67,30.06,6.2,East,2.3,-,N/A,,Partly Cloudy,90,2013-03-24 16:20:00
6:50 PM,55.4,46.4,72,30.06,6.2,East,4.6,-,N/A,,Partly Cloudy,80,2013-03-24 16:50:00
7:20 PM,55.4,46.4,72,30.09,-9999.0,ENE,4.6,-,N/A,,Clear,70,2013-03-24 17:20:00
7:50 PM,53.6,44.6,72,30.09,-9999.0,ENE,4.6,-,N/A,,Clear,70,2013-03-24 17:50:00
8:00 PM,53,45,67,30.09,6,ENE,4.6,,,,,70,2013-03-24 18:00:00
8:20 PM,51.8,44.6,76,30.09,-9999.0,ENE,3.5,-,N/A,,Clear,60,2013-03-24 18:20:00
8:50 PM,51.8,42.8,71,30.12,-9999.0,NNW,3.5,-,N/A,,Clear,340,2013-03-24 18:50:00
9:20 PM,50.0,44.6,82,30.12,-9999.0,North,4.6,-,N/A,,Clear,350,2013-03-24 19:20:00
9:50 PM,50.0,42.8,76,30.12,-9999.0,NNW,5.8,-,N/A,,Clear,340,2013-03-24 19:50:00
10:20 PM,48.2,42.8,82,30.15,-9999.0,North,6.9,-,N/A,,Clear,350,2013-03-24 20:20:00
10:50 PM,46.4,42.8,87,30.15,-9999.0,North,5.8,-,N/A,,Clear,350,2013-03-24 20:50:00
11:20 PM,46.4,41.0,81,30.12,-9999.0,North,4.6,-,N/A,,Clear,350,2013-03-24 21:20:00
11:50 PM,46.4,41.0,81,30.12,-9999.0,NNW,5.8,-,N/A,,Clear,340,2013-03-24 21:50:00